BRITE-CA1 (TORONTO)

Last updated on Sun Jun 21 2026 00:03:39 GMT+0000 (Coordinated Universal Time)

1 40020U 14033L 26171.36706416 .00000559 00000+0 91945-4 0 9997 2 40020 97.9744 300.2364 0077215 266.6473 92.5899 14.72680489642689
UTC large
Height (km)
Speed (km/s)
/
Latitude / Longitude
Inclination (degrees)
Orbital Period (minutes)
Azimuth
Elevation
Range (km)
Doppler Factor

Next 0 passes for location: London (51.5072 / 0.1276)

No passes found over London.
BRITE-CA1 (TORONTO)